[[{"header":{"parameterUnit":"m.s-1","parameterCategory":2,"la1":30.2991,"la2":30.254,"lo1":-89.0895,"lo2":-89.0444,"dy":0.0017,"dx":0.0017,"nx":28,"ny":28,"refTime":"2024-05-01T03:00:00:Z","depth":"0","parameterNumber":2,"parameterNumberName":"U-component_of_CURRENTS"},"data":[0,0,0,0,0,0,0,0,0,0,0,0,0,0,0,0,0,0,0,0,0,0,0,0,0,0,0,0,0,0,0,0,0,0,0,0,0,0,0,0,0,0,0,0,0,0,0,0,0,0,0,0,0,0,0,0,0,0,0.4956,0.4956,0,0.4907,0.4905,0.4904,0.4836,0.4836,0.4836,0.4836,0.481,0.4809,0.4809,0,0,0,0,0,0,0,0,0,0,0,0,0,0.4916,0.4917,0.4956,0.4956,0.4957,0.4907,0.4905,0.4903,0.4836,0.4836,0.4836,0.4836,0.481,0.4809,0.4809,0,0,0,0,0,0,0,0,0,0,0,0,0,0.4896,0.4917,0.4956,0.4926,0.4924,0.4907,0.4905,0.4903,0.4836,0.4836,0.4836,0.4836,0.481,0.4809,0.4808,0.4803,0,0,0.4805,0.4805,0,0,0,0,0,0,0,0,0.4897,0.4896,0.493,0.4928,0.4926,0.4888,0.4882,0.4875,0.4836,0.4856,0.4836,0.4836,0.4846,0.4842,0.4815,0.4802,0.48,0.4805,0.4805,0.4804,0.4804,0,0,0,0,0,0,0,0.4899,0.4897,0.4924,0.4931,0.4928,0.4891,0.4887,0.4879,0.4843,0.4855,0.4853,0.4867,0.4844,0.4816,0.4815,0.48,0.4805,0.4804,0.4804,0.4803,0.4893,0.4896,0,0,0,0,0,0,0.4933,0.4899,0.4926,0.4924,0.4925,0.4893,0.4888,0.489,0.4843,0.4839,0.4867,0.4864,0.4818,0.4816,0.4814,0.4892,0.4804,0.4803,0.4803,0.489,0.4894,0.4897,0,0,0,0,0,0,0.4932,0.4936,0.4928,0.492,0.4918,0.4895,0.4897,0.489,0.4885,0.4854,0.4848,0.4875,0.4818,0.4815,0.4837,0.4888,0.4803,0.4802,0.4887,0.4891,0.4895,0.4994,0,0,0,0,0,0,0.4931,0.4935,0.4951,0.4923,0.4921,0.4956,0.4898,0.4889,0.4899,0.4894,0.4859,0.4854,0.4818,0.4839,0.4836,0.4885,0.4801,0.4883,0.4889,0.4894,0.4987,0.5001,0.5014,0,0,0,0,0,0.493,0.4961,0.4951,0.4956,0.4942,0.496,0.4955,0.4928,0.49,0.4918,0.489,0.4857,0.4873,0.484,0.4836,0.4886,0.488,0.4887,0.4894,0.4981,0.4999,0.5013,0,0,0,0,0,0,0.4934,0.4957,0.4946,0.4976,0.4987,0.4954,0.4975,0.4948,0.4933,0.4931,0.4881,0.4876,0.4921,0.4895,0.486,0.4933,0.4877,0.4884,0.4946,0.4962,0.4975,0.4988,0.48,0,0,0,0,0,0.495,0.4991,0.4991,0.5019,0.5033,0.5004,0.5008,0.4992,0.4979,0.497,0.4943,0.493,0.4941,0.4945,0.4945,0.4975,0.496,0.5012,0.5025,0.5036,0.5048,0.5091,0.5108,0.4919,0.4919,0.4919,0,0,0.4952,0.4981,0.4995,0.5027,0.5027,0.5027,0.5004,0.5031,0.5028,0.4974,0.4971,0.4978,0.4963,0.4999,0.5018,0.4984,0.508,0.5045,0.5054,0.506,0.51,0.5118,0.5134,0.4924,0.4923,0.4922,0,0,0.4969,0.5014,0.5034,0.5054,0.5086,0.5079,0.5097,0.5083,0.5087,0.5096,0.5068,0.5113,0.5094,0.5109,0.511,0.5203,0.5154,0.5207,0.5275,0.5317,0.5332,0.5345,0.533,0.5342,0.5207,0.5208,0.5208,0,0.4966,0.4988,0.5044,0.5059,0.5072,0.5103,0.5097,0.5115,0.5106,0.5128,0.5117,0.5149,0.515,0.5205,0.5244,0.5234,0.5224,0.5208,0.5332,0.5346,0.5358,0.5339,0.535,0.5213,0.5212,0.5212,0.5211,0,0.4951,0.4992,0.502,0.5045,0.5071,0.5098,0.5128,0.5163,0.5179,0.5187,0.5265,0.5281,0.5296,0.5327,0.5311,0.5408,0.5361,0.5347,0.5286,0.5382,0.5357,0.5366,0.5221,0.5219,0.5217,0.5216,0,0,0.4836,0.4984,0.4971,0.5006,0.5069,0.5078,0.5135,0.5185,0.5214,0.5272,0.5313,0.5393,0.5422,0.543,0.5441,0.5499,0.5583,0.5467,0.5467,0.544,0.5635,0.5439,0.543,0.5586,0.5589,0.5591,0.5574,0,0.4786,0.4838,0.4908,0.4937,0.4967,0.5049,0.5087,0.515,0.5217,0.5278,0.5381,0.5427,0.5454,0.5475,0.5548,0.5572,0.5617,0.5586,0.5555,0.5554,0.536,0.5439,0.5278,0.5236,0.5583,0.5585,0.5586,0,0.468,0.4754,0.4786,0.4917,0.4928,0.4942,0.5026,0.5073,0.5208,0.5267,0.5376,0.544,0.5558,0.5561,0.5669,0.5643,0.5655,0.5677,0.5676,0.5467,0.5378,0.5202,0.524,0.518,0.56,0.5599,0.5598,0,0.4532,0.4644,0.4685,0.4716,0.4856,0.4885,0.4944,0.5059,0.5114,0.5268,0.532,0.5465,0.5522,0.5605,0.5685,0.5671,0.5784,0.5751,0.5584,0.5568,0.5411,0.5375,0.5377,0.5829,0.5829,0.5829,0.5829,0,0.4434,0.4453,0.4626,0.4641,0.4669,0.4794,0.4831,0.4922,0.5058,0.5109,0.5299,0.536,0.5544,0.5636,0.5693,0.5664,0.5783,0.5604,0.5564,0.5435,0.5403,0.5323,0.5289,0.5828,0.5828,0.5828,0.5829,0,0.426,0.4378,0.443,0.4576,0.4608,0.4616,0.4745,0.4777,0.4935,0.5008,0.5061,0.5288,0.5384,0.5537,0.5658,0.5622,0.5492,0.5613,0.5422,0.5357,0.5045,0.5021,0.4726,0.459,0.5368,0.5364,0.536,0,0.4183,0.4204,0.4333,0.4345,0.4408,0.4464,0.4489,0.4669,0.4718,0.4936,0.495,0.5122,0.5175,0.5294,0.533,0.5355,0.5309,0.5179,0.5116,0.5007,0.4956,0.4777,0.4675,0.4952,0.4945,0.494,0.4935,0,0.4032,0.408,0.413,0.4163,0.4187,0.4211,0.4283,0.4307,0.4503,0.4573,0.4668,0.4745,0.49,0.4875,0.4945,0.4958,0.4924,0.5047,0.5028,0.4695,0.4414,0.427,0.4959,0.4884,0.4889,0.4893,0.4896,0.4898,0.3889,0.3879,0.3942,0.3927,0.3955,0.3914,0.3865,0.3964,0.3984,0.405,0.4289,0.4333,0.4522,0.4579,0.4568,0.4497,0.4468,0.441,0.4409,0.4253,0.4052,0.4575,0.4389,0.4391,0.4393,0.4395,0.4396,0,0.3671,0.3679,0.3693,0.3656,0.3573,0.3669,0.3671,0.3605,0.3527,0.3693,0.3745,0.3915,0.3925,0.4095,0.4129,0.3974,0.3821,0.3894,0.3708,0.3656,0.4234,0.4152,0.3793,0.3793,0.3793,0.3794,0.3794,0.3794,0.355,0.3471,0.3465,0.3251,0.3227,0.3076,0.3022,0.2985,0.3066,0.3083,0.3184,0.3356,0.3712,0.385,0.3793,0.37,0.349,0.3255,0.3266,0.3824,0.3877,0.3926,0.3847,0.3431,0.343,0.2578,0.2571,0.2567]},{"header":{"parameterUnit":"m.s-1","parameterCategory":2,"la1":30.2991,"la2":30.254,"lo1":-89.0895,"lo2":-89.0444,"dy":0.0017,"dx":0.0017,"nx":28,"ny":28,"refTime":"2024-05-01T03:00:00:Z","depth":"0","parameterNumber":3,"parameterNumberName":"V-component_of_CURRENTS"},"data":[0,0,0,0,0,0,0,0,0,0,0,0,0,0,0,0,0,0,0,0,0,0,0,0,0,0,0,0,0,0,0,0,0,0,0,0,0,0,0,0,0,0,0,0,0,0,0,0,0,0,0,0,0,0,0,0,0,0,-0.0123,-0.0123,0,-0.0116,-0.0116,-0.0115,-0.0112,-0.0112,-0.0112,-0.0112,-0.0172,-0.0173,-0.0174,0,0,0,0,0,0,0,0,0,0,0,0,0,-0.0134,-0.0134,-0.0123,-0.0123,-0.0123,-0.0116,-0.0116,-0.0115,-0.0112,-0.0112,-0.0112,-0.0113,-0.0171,-0.0173,-0.0175,0,0,0,0,0,0,0,0,0,0,0,0,0,-0.0126,-0.0134,-0.0123,-0.0123,-0.0123,-0.0116,-0.0116,-0.0115,-0.0112,-0.0112,-0.0112,-0.0113,-0.0171,-0.0173,-0.0175,-0.018,0,0,-0.0181,-0.0182,0,0,0,0,0,0,0,0,-0.0126,-0.0125,-0.0122,-0.0123,-0.0123,-0.0117,-0.0141,-0.0141,-0.0112,-0.0113,-0.0112,-0.0113,-0.0161,-0.0164,-0.0157,-0.0182,-0.0185,-0.0181,-0.0182,-0.0183,-0.0184,0,0,0,0,0,0,0,-0.0127,-0.0125,-0.0117,-0.0123,-0.0123,-0.0123,-0.0122,-0.0141,-0.0134,-0.0113,-0.0113,-0.0117,-0.0162,-0.0155,-0.0159,-0.0186,-0.0181,-0.0183,-0.0184,-0.0185,-0.0269,-0.027,0,0,0,0,0,0,-0.0133,-0.0126,-0.0118,-0.0117,-0.0129,-0.0123,-0.0122,-0.0117,-0.0133,-0.0136,-0.0116,-0.0117,-0.0151,-0.0156,-0.0161,-0.019,-0.0183,-0.0185,-0.0186,-0.0268,-0.027,-0.0271,0,0,0,0,0,0,-0.0133,-0.0132,-0.0118,-0.0124,-0.0123,-0.0123,-0.0117,-0.0116,-0.0111,-0.0135,-0.0139,-0.0112,-0.0152,-0.0158,-0.0182,-0.0192,-0.0186,-0.0188,-0.0267,-0.0269,-0.027,-0.0235,0,0,0,0,0,0,-0.0133,-0.0131,-0.013,-0.0124,-0.0123,-0.0111,-0.0117,-0.0116,-0.0114,-0.0114,-0.0133,-0.0138,-0.0153,-0.0179,-0.0184,-0.0195,-0.0189,-0.0266,-0.0268,-0.027,-0.0235,-0.0235,-0.0236,0,0,0,0,0,-0.0133,-0.0123,-0.0129,-0.0129,-0.012,-0.0111,-0.0109,-0.0109,-0.0113,-0.0106,-0.0127,-0.0138,-0.0196,-0.0181,-0.0187,-0.0198,-0.0265,-0.0267,-0.0269,-0.0235,-0.0235,-0.0236,0,0,0,0,0,0,-0.0125,-0.0122,-0.0129,-0.0118,-0.0117,-0.0111,-0.0106,-0.0108,-0.0115,-0.012,-0.0141,-0.0148,-0.0175,-0.0195,-0.0179,-0.0232,-0.0236,-0.024,-0.0208,-0.0209,-0.0209,-0.0187,-0.0191,0,0,0,0,0,-0.0125,-0.0117,-0.0117,-0.0111,-0.0109,-0.0109,-0.0106,-0.0106,-0.0113,-0.0115,-0.013,-0.0159,-0.0188,-0.0204,-0.0228,-0.0251,-0.025,-0.0268,-0.0269,-0.0268,-0.0257,-0.0278,-0.0278,-0.0278,-0.0278,-0.0278,0,0,-0.0119,-0.0119,-0.0114,-0.011,-0.0108,-0.0094,-0.0107,-0.01,-0.0098,-0.0123,-0.0127,-0.0155,-0.0195,-0.022,-0.0236,-0.0239,-0.0264,-0.0271,-0.0271,-0.0259,-0.028,-0.028,-0.028,-0.028,-0.028,-0.0279,0,0,-0.0099,-0.0106,-0.0089,-0.0089,-0.0089,-0.0086,-0.0084,-0.008,-0.0089,-0.0098,-0.0125,-0.0157,-0.019,-0.0221,-0.0243,-0.0262,-0.0263,-0.028,-0.0263,-0.0283,-0.0282,-0.0282,-0.0255,-0.0252,-0.0282,-0.0282,-0.0282,0,-0.0093,-0.0072,-0.0084,-0.0071,-0.0062,-0.008,-0.0055,-0.007,-0.0077,-0.008,-0.0098,-0.015,-0.0189,-0.0225,-0.0239,-0.0261,-0.0255,-0.0253,-0.028,-0.028,-0.028,-0.0253,-0.025,-0.0281,-0.0281,-0.0281,-0.0281,0,-0.0052,-0.0046,-0.0037,-0.0024,-0.0017,-0.0002,-0.0019,-0.0022,-0.0036,-0.0046,-0.0078,-0.0133,-0.0157,-0.0194,-0.0224,-0.0253,-0.024,-0.0272,-0.027,-0.0277,-0.0248,-0.0246,-0.0279,-0.0279,-0.028,-0.028,0,0,0.0005,-0.0005,0.0002,0.0017,0.0012,0.0035,0.0022,0.0027,0.004,-0.0008,0.0008,-0.0085,-0.0105,-0.0133,-0.0185,-0.0224,-0.0225,-0.0247,-0.0249,-0.0201,-0.0229,-0.0213,-0.0209,-0.026,-0.026,-0.026,-0.0198,0,0.0049,0.0086,0.0068,0.0111,0.0137,0.0109,0.0113,0.0105,0.0085,0.0091,0.0008,0.0003,-0.0088,-0.0088,-0.0149,-0.0197,-0.0222,-0.0236,-0.0245,-0.0244,-0.0215,-0.0208,-0.0178,-0.0121,-0.0196,-0.0196,-0.0195,0,0.0115,0.0131,0.0181,0.0194,0.0206,0.023,0.0259,0.0255,0.0227,0.0212,0.0169,0.0122,0.0061,-0.0012,-0.0106,-0.0106,-0.0162,-0.0213,-0.0212,-0.0207,-0.0226,-0.0134,-0.0114,-0.0291,-0.0192,-0.0192,-0.0193,0,0.0205,0.0219,0.0269,0.0274,0.0284,0.0308,0.032,0.0308,0.0336,0.0306,0.0345,0.0236,0.0242,0.0114,0.0003,-0.0045,-0.0075,-0.015,-0.0184,-0.0182,-0.0163,-0.0159,-0.0301,-0.0209,-0.0209,-0.0209,-0.0209,0,0.0277,0.0318,0.0319,0.0353,0.0433,0.0402,0.0483,0.0468,0.0481,0.056,0.043,0.0486,0.0275,0.0227,0.0072,-0.0022,-0.0015,-0.0164,-0.0171,-0.0148,-0.0144,-0.0304,-0.0412,-0.0207,-0.0207,-0.0208,-0.0208,0,0.0375,0.0366,0.0435,0.0461,0.0483,0.055,0.0615,0.0673,0.066,0.0765,0.0775,0.0711,0.0652,0.0454,0.0295,0.0125,-0.0094,-0.004,0.0025,0.0022,-0.0223,-0.0329,-0.0453,-0.0531,-0.0086,-0.0085,-0.0084,0,0.0428,0.0473,0.0544,0.061,0.0633,0.0716,0.0787,0.0781,0.0857,0.0929,0.1009,0.0977,0.0992,0.0759,0.0452,0.0208,0.0002,0.0059,-0.0063,-0.0219,-0.0343,-0.0432,-0.0496,-0.0006,-0.0005,-0.0004,-0.0003,0,0.054,0.0569,0.0627,0.0762,0.0856,0.0954,0.1051,0.1136,0.1168,0.1262,0.1389,0.1404,0.1192,0.0961,0.0604,0.0395,-0.0072,0.007,-0.0122,-0.0315,-0.039,-0.0471,-0.0036,0.0005,0.0004,0.0004,0.0003,0.0003,0.0638,0.0709,0.0796,0.0923,0.1032,0.1174,0.1269,0.1389,0.1535,0.1679,0.1685,0.176,0.1408,0.0919,0.0604,0.0048,0.0004,-0.0149,-0.0262,-0.0335,-0.0438,0.0037,0.0075,0.0075,0.0074,0.0074,0.0074,0,0.0758,0.0829,0.0953,0.1092,0.1218,0.1252,0.1431,0.1533,0.1727,0.1905,0.2007,0.1937,0.1471,0.096,0.0225,-0.0205,-0.0398,-0.0448,-0.0593,-0.0644,-0.0235,-0.0263,-0.026,-0.0259,-0.0259,-0.0259,-0.0259,-0.0259,0.0829,0.0957,0.1006,0.1216,0.1316,0.1482,0.1584,0.1754,0.191,0.2146,0.225,0.2296,0.1975,0.0616,-0.0325,-0.0568,-0.0872,-0.0932,-0.1095,-0.0853,-0.0835,-0.0818,-0.0872,-0.0997,-0.0998,-0.1452,-0.1457,-0.146]}],[{"header":{"parameterUnit":"m.s-1","parameterCategory":2,"la1":30.2991,"la2":30.254,"lo1":-89.0895,"lo2":-89.0444,"dy":0.0017,"dx":0.0017,"nx":28,"ny":28,"refTime":"2024-05-01T03:00:00:Z","depth":"2","parameterNumber":2,"parameterNumberName":"U-component_of_CURRENTS"},"data":[0,0,0,0,0,0,0,0,0,0,0,0,0,0,0,0,0,0,0,0,0,0,0,0,0,0,0,0,0,0,0,0,0,0,0,0,0,0,0,0,0,0,0,0,0,0,0,0,0,0,0,0,0,0,0,0,0,0,0.3291,0.3291,0,0.3341,0.3341,0.3342,0.337,0.3371,0.3371,0.3371,0.3348,0.3347,0.3346,0,0,0,0,0,0,0,0,0,0,0,0,0,0.324,0.3241,0.329,0.3291,0.3292,0.3341,0.3341,0.3342,0.337,0.3371,0.3371,0.3371,0.3348,0.3347,0.3346,0,0,0,0,0,0,0,0,0,0,0,0,0,0.3273,0.3241,0.329,0.3312,0.3315,0.334,0.3341,0.3342,0.337,0.3371,0.3371,0.3371,0.3348,0.3347,0.3346,0.3335,0,0,0.3343,0.3342,0,0,0,0,0,0,0,0,0.3271,0.3275,0.3308,0.3311,0.3314,0.335,0.3315,0.3336,0.337,0.3349,0.3371,0.3371,0.3342,0.3341,0.3351,0.3334,0.3333,0.3343,0.3342,0.3341,0.3341,0,0,0,0,0,0,0,0.3269,0.3273,0.331,0.3309,0.3312,0.3327,0.3331,0.332,0.3342,0.3351,0.3353,0.3359,0.3343,0.3352,0.335,0.3333,0.3343,0.3342,0.3341,0.334,0.3406,0.3408,0,0,0,0,0,0,0.3262,0.327,0.3308,0.3312,0.3293,0.3327,0.3332,0.3338,0.3344,0.3346,0.3359,0.336,0.3354,0.3351,0.3349,0.3417,0.3341,0.334,0.334,0.3404,0.3406,0.3409,0,0,0,0,0,0,0.3261,0.3265,0.3306,0.3292,0.3299,0.3328,0.3334,0.3339,0.3369,0.3351,0.3351,0.3386,0.3354,0.3351,0.3366,0.3413,0.334,0.3339,0.3401,0.3404,0.3408,0.3499,0,0,0,0,0,0,0.3259,0.3264,0.3274,0.3292,0.3299,0.3348,0.3334,0.3339,0.3371,0.3374,0.3374,0.3371,0.3354,0.3368,0.3365,0.341,0.3338,0.3398,0.3402,0.3407,0.3493,0.3506,0.3516,0,0,0,0,0,0.3257,0.3276,0.3274,0.328,0.331,0.3349,0.3356,0.3376,0.3373,0.3401,0.3397,0.3372,0.3395,0.3368,0.3364,0.341,0.3395,0.3401,0.3406,0.3488,0.3503,0.3516,0,0,0,0,0,0,0.3249,0.3281,0.328,0.3303,0.3333,0.3355,0.3385,0.3389,0.341,0.3419,0.3388,0.3386,0.3428,0.3403,0.3374,0.3446,0.3397,0.3402,0.3461,0.3474,0.3486,0.3464,0.3337,0,0,0,0,0,0.3252,0.3294,0.3305,0.3336,0.3347,0.3367,0.3387,0.3407,0.3422,0.3433,0.3426,0.3428,0.3445,0.3445,0.3456,0.3475,0.3471,0.3509,0.352,0.353,0.3512,0.3578,0.3594,0.3427,0.3427,0.3427,0,0,0.3261,0.3286,0.3309,0.3341,0.3365,0.3383,0.3382,0.3434,0.3451,0.3424,0.3451,0.3471,0.3462,0.3503,0.3519,0.3486,0.3577,0.3537,0.3545,0.3521,0.3586,0.3602,0.3616,0.343,0.343,0.3429,0,0,0.3287,0.3318,0.3344,0.3377,0.3422,0.3432,0.3449,0.3479,0.3498,0.3526,0.3526,0.3559,0.3569,0.3576,0.3577,0.365,0.3645,0.3681,0.3707,0.3773,0.3787,0.3799,0.3818,0.3831,0.3676,0.3676,0.3676,0,0.332,0.3321,0.336,0.3388,0.3415,0.3449,0.3468,0.3494,0.3529,0.3551,0.3549,0.3608,0.3596,0.3642,0.3672,0.3673,0.3707,0.3654,0.3787,0.3799,0.381,0.3826,0.384,0.3681,0.368,0.368,0.3679,0,0.3314,0.3353,0.3381,0.342,0.3451,0.3501,0.3523,0.3565,0.3587,0.3611,0.3682,0.3687,0.3719,0.3739,0.3718,0.3803,0.3803,0.3805,0.3749,0.3832,0.3844,0.3856,0.3688,0.3686,0.3685,0.3684,0,0,0.3323,0.3376,0.3388,0.3407,0.3482,0.35,0.3553,0.3598,0.3641,0.369,0.3741,0.3777,0.381,0.3812,0.3823,0.3862,0.3958,0.387,0.3871,0.3881,0.41,0.3991,0.3993,0.4015,0.4018,0.402,0.4079,0,0.3323,0.3351,0.3387,0.3435,0.3443,0.3522,0.3562,0.3622,0.3681,0.3746,0.3787,0.3849,0.3831,0.3875,0.3916,0.3944,0.3996,0.394,0.4023,0.4023,0.3911,0.4005,0.3707,0.3727,0.4091,0.4092,0.4094,0,0.3276,0.3307,0.3333,0.3423,0.3438,0.3481,0.357,0.3631,0.3743,0.3798,0.3885,0.393,0.3983,0.3975,0.4057,0.4039,0.4079,0.4096,0.41,0.3965,0.3936,0.3703,0.3735,0.4113,0.4112,0.411,0.4109,0,0.3187,0.3271,0.3286,0.332,0.3416,0.3463,0.3534,0.3647,0.3694,0.3855,0.3907,0.4004,0.4042,0.4116,0.4136,0.413,0.4228,0.4219,0.416,0.4151,0.3887,0.385,0.4314,0.4314,0.4314,0.4314,0.4313,0,0.3153,0.3169,0.3251,0.327,0.331,0.3414,0.349,0.3596,0.372,0.3782,0.3936,0.3982,0.4092,0.415,0.418,0.4185,0.427,0.4167,0.417,0.391,0.3877,0.4195,0.418,0.4316,0.4315,0.4315,0.4315,0,0.3038,0.3105,0.3129,0.3234,0.3268,0.3303,0.3437,0.3489,0.3651,0.374,0.3791,0.396,0.4055,0.4138,0.4242,0.4212,0.4248,0.4247,0.3908,0.3869,0.4114,0.4104,0.4172,0.4169,0.4167,0.4164,0.4162,0,0.297,0.2963,0.3065,0.3089,0.3145,0.3214,0.326,0.3428,0.3487,0.3699,0.372,0.3878,0.3949,0.4055,0.4065,0.4109,0.4212,0.3846,0.3764,0.4109,0.4106,0.41,0.4093,0.3454,0.3447,0.3441,0.3436,0,0.2836,0.2883,0.2913,0.2959,0.3013,0.3052,0.3147,0.3163,0.3364,0.3443,0.3559,0.3647,0.3793,0.3707,0.3791,0.3773,0.3806,0.3721,0.4197,0.3535,0.3437,0.3432,0.3449,0.3381,0.3387,0.3391,0.3394,0.3396,0.2731,0.2725,0.2785,0.2813,0.2863,0.2887,0.2877,0.297,0.3027,0.3129,0.3302,0.3349,0.3434,0.3402,0.3324,0.3276,0.3542,0.3393,0.3411,0.3435,0.334,0.3243,0.313,0.3134,0.3137,0.314,0.3143,0,0.2588,0.2616,0.2634,0.2676,0.2655,0.2743,0.2778,0.2742,0.2744,0.2875,0.2951,0.2782,0.2769,0.2854,0.2712,0.2734,0.2693,0.2614,0.2539,0.2598,0.2649,0.2511,0.2083,0.2079,0.2075,0.2072,0,0,0.2532,0.2505,0.2517,0.2453,0.2472,0.2407,0.2391,0.2374,0.2419,0.2396,0.2401,0.2633,0.2769,0.2377,0.2353,0.2186,0.2359,0.2098,0.2959,0.2929,0.2974,0.3124,0.2981,0,0,0,0,0]},{"header":{"parameterUnit":"m.s-1","parameterCategory":2,"la1":30.2991,"la2":30.254,"lo1":-89.0895,"lo2":-89.0444,"dy":0.0017,"dx":0.0017,"nx":28,"ny":28,"refTime":"2024-05-01T03:00:00:Z","depth":"2","parameterNumber":3,"parameterNumberName":"V-component_of_CURRENTS"},"data":[0,0,0,0,0,0,0,0,0,0,0,0,0,0,0,0,0,0,0,0,0,0,0,0,0,0,0,0,0,0,0,0,0,0,0,0,0,0,0,0,0,0,0,0,0,0,0,0,0,0,0,0,0,0,0,0,0,0,0.0145,0.0145,0,0.0107,0.0107,0.0107,0.0073,0.0073,0.0072,0.0072,-0.0002,-0.0004,-0.0005,0,0,0,0,0,0,0,0,0,0,0,0,0,0.016,0.016,0.0145,0.0144,0.0144,0.0107,0.0107,0.0106,0.0073,0.0073,0.0072,0.0072,-0.0002,-0.0004,-0.0006,0,0,0,0,0,0,0,0,0,0,0,0,0,0.0143,0.0161,0.0145,0.0122,0.0119,0.0107,0.0107,0.0106,0.0074,0.0073,0.0072,0.0071,-0.0001,-0.0004,-0.0006,-0.0005,0,0,-0.0013,-0.0014,0,0,0,0,0,0,0,0,0.0144,0.0142,0.0126,0.0124,0.0121,0.0093,0.0085,0.0067,0.0074,0.0092,0.0072,0.0071,0.0026,0.0021,0.0018,-0.0008,-0.0011,-0.0013,-0.0014,-0.0015,-0.0016,0,0,0,0,0,0,0,0.0145,0.0143,0.0131,0.0125,0.0122,0.0104,0.0101,0.0081,0.0064,0.0091,0.0088,0.0082,0.0024,0.0021,0.0016,-0.0013,-0.0013,-0.0015,-0.0016,-0.0017,-0.007,-0.007,0,0,0,0,0,0,0.0149,0.0145,0.0133,0.013,0.0129,0.0104,0.0101,0.0104,0.0065,0.0058,0.0083,0.008,0.0025,0.0019,0.0013,0.0009,-0.0015,-0.0017,-0.0019,-0.007,-0.007,-0.007,0,0,0,0,0,0,0.015,0.0149,0.0134,0.0135,0.0131,0.0105,0.0108,0.0103,0.0097,0.0059,0.0052,0.0081,0.0024,0.0016,-0.0002,0.0006,-0.0018,-0.0021,-0.007,-0.007,-0.007,0.0003,0,0,0,0,0,0,0.0151,0.015,0.0151,0.0136,0.0132,0.0135,0.0109,0.0103,0.0094,0.0091,0.0055,0.0048,0.0023,0.0002,-0.0004,0.0003,-0.0022,-0.007,-0.007,-0.007,0.0001,0.0006,0.001,0,0,0,0,0,0.0152,0.0171,0.0151,0.0149,0.0135,0.0135,0.0132,0.011,0.0095,0.0101,0.0073,0.0049,-0.0003,0.0001,-0.0007,-0.0,-0.007,-0.007,-0.007,-0.0001,0.0005,0.001,0,0,0,0,0,0,0.0183,0.0168,0.0147,0.016,0.0146,0.0129,0.0135,0.0115,0.0098,0.0093,0.0054,0.0046,0.0027,0.0003,0.0008,-0.0019,-0.0043,-0.0044,0.0012,0.0017,0.0021,0.0058,-0.0024,0,0,0,0,0,0.0187,0.0194,0.0173,0.0181,0.018,0.0155,0.015,0.0133,0.0117,0.0109,0.0084,0.0052,0.0023,0.0013,-0.0016,-0.0021,-0.0047,-0.0026,-0.0021,-0.0017,0.0006,-0.0034,-0.0031,-0.007,-0.007,-0.007,0,0,0.0206,0.0193,0.0199,0.0187,0.0178,0.0188,0.0152,0.0153,0.0158,0.0103,0.0108,0.0066,0.0022,0.0011,0.0001,-0.0006,-0.0021,-0.0017,-0.0013,0.0008,-0.0034,-0.003,-0.0026,-0.007,-0.007,-0.007,0,0,0.0246,0.0233,0.0251,0.0239,0.022,0.0213,0.0215,0.0198,0.019,0.0182,0.0138,0.0113,0.0074,0.0053,0.0033,0.0047,-0.0001,0.002,0.0082,0.0043,0.0046,0.0049,0.002,0.002,0.0029,0.003,0.003,0,0.0256,0.0279,0.0257,0.0263,0.0265,0.023,0.0253,0.0242,0.0219,0.022,0.0193,0.0138,0.0102,0.009,0.0091,0.0062,0.0026,0.0068,0.0051,0.0053,0.0054,0.0024,0.0023,0.0033,0.0033,0.0032,0.0032,0,0.0309,0.0317,0.0332,0.033,0.0333,0.0347,0.033,0.033,0.0313,0.0297,0.0278,0.0226,0.0196,0.0171,0.0137,0.0127,0.0093,0.0057,0.0044,0.0063,0.0029,0.0027,0.0038,0.0037,0.0036,0.0035,0,0,0.0347,0.0366,0.0367,0.0382,0.0368,0.0384,0.0398,0.0409,0.0426,0.0386,0.0405,0.0347,0.031,0.0286,0.023,0.0201,0.0178,0.014,0.0136,0.0125,0.0089,0.007,0.0064,0.0126,0.0126,0.0126,0.006,0,0.0389,0.0438,0.0428,0.0475,0.0507,0.0478,0.0501,0.0497,0.0486,0.0493,0.0437,0.0426,0.0355,0.0337,0.0296,0.0207,0.0174,0.02,0.0061,0.0058,0.0049,0.0062,0.0087,0.0031,0.0057,0.0057,0.0057,0,0.0436,0.0467,0.0531,0.0564,0.0574,0.0595,0.0631,0.0639,0.0629,0.0615,0.0586,0.0534,0.0494,0.0424,0.0301,0.0312,0.0214,0.0143,0.0137,0.0099,0.0034,0.0014,0.0025,0.0052,0.0052,0.0052,0.0053,0,0.0496,0.0534,0.0599,0.0605,0.0638,0.0663,0.068,0.0684,0.0712,0.0695,0.071,0.0632,0.0606,0.0477,0.0327,0.0306,0.0187,0.0136,0.003,0.0027,0.0015,0.0012,0.0051,0.0051,0.0052,0.0052,0.0052,0,0.0546,0.059,0.0636,0.0666,0.0745,0.0734,0.0804,0.0802,0.0819,0.087,0.0779,0.0795,0.0615,0.0521,0.0366,0.02,0.0211,0.0056,0.0013,0.004,0.0039,0.003,0.0028,0.0049,0.005,0.005,0.0051,0,0.0596,0.0624,0.0694,0.075,0.0777,0.083,0.0894,0.0939,0.0937,0.1,0.1002,0.0924,0.08,0.0615,0.0414,0.0265,0.01,0.0033,0.0085,0.005,-0.0044,-0.0042,-0.0085,-0.0086,-0.0087,-0.0088,-0.0088,0,0.0631,0.0677,0.0762,0.0818,0.0847,0.0924,0.0981,0.1002,0.1054,0.1085,0.1125,0.1032,0.0983,0.0683,0.041,0.0148,0.0101,-0.0014,-0.0046,-0.0018,-0.0056,-0.0052,-0.0048,-0.0038,-0.0038,-0.0038,-0.0038,0,0.0693,0.0718,0.0777,0.0891,0.0968,0.1054,0.1135,0.1202,0.1236,0.1289,0.1331,0.1299,0.1026,0.0762,0.0396,0.0216,0.003,-0.0026,-0.0012,-0.0004,0.0021,-0.0015,-0.0012,-0.004,-0.0039,-0.0039,-0.0039,-0.0039,0.0733,0.0783,0.0858,0.0964,0.1053,0.1161,0.1242,0.1333,0.1434,0.1512,0.148,0.1434,0.1141,0.0679,0.0355,0.0015,0.0034,-0.0095,-0.0093,-0.0091,-0.007,-0.0048,-0.0117,-0.0118,-0.0118,-0.0118,-0.0118,0,0.0779,0.0836,0.093,0.1047,0.1138,0.1183,0.1327,0.1405,0.1533,0.1609,0.164,0.1368,0.107,0.0723,0.0225,-0.007,-0.0093,-0.0173,-0.0137,-0.0133,-0.0129,-0.0111,-0.0169,-0.017,-0.0171,-0.0172,0,0,0.0806,0.089,0.0932,0.1086,0.1174,0.1301,0.1386,0.151,0.1595,0.1667,0.1652,0.1599,0.1188,0.0816,0.0412,0.0116,0.0059,0.0058,0.0134,0.023,0.0236,-0.0046,-0.0008,0,0,0,0,0]}],[{"header":{"parameterUnit":"m.s-1","parameterCategory":2,"la1":30.2991,"la2":30.254,"lo1":-89.0895,"lo2":-89.0444,"dy":0.0017,"dx":0.0017,"nx":28,"ny":28,"refTime":"2024-05-01T03:00:00:Z","depth":"4","parameterNumber":2,"parameterNumberName":"U-component_of_CURRENTS"},"data":[0,0,0,0,0,0,0,0,0,0,0,0,0,0,0,0,0,0,0,0,0,0,0,0,0,0,0,0,0,0,0,0,0,0,0,0,0,0,0,0,0,0,0,0,0,0,0,0,0,0,0,0,0,0,0,0,0,0,0.1847,0.1848,0,0.1926,0.1927,0.1927,0.1958,0.1959,0.1959,0.1959,0.2037,0.2039,0.2041,0,0,0,0,0,0,0,0,0,0,0,0,0,0.1756,0.1757,0.1847,0.1848,0.1849,0.1926,0.1927,0.1928,0.1958,0.1959,0.1959,0.1959,0.2037,0.2039,0.2041,0,0,0,0,0,0,0,0,0,0,0,0,0,0.1808,0.1758,0.1846,0.1877,0.1881,0.1926,0.1927,0.1928,0.1958,0.1959,0.1959,0.1959,0.2036,0.2039,0.2042,0.2055,0,0,0.2051,0.2052,0,0,0,0,0,0,0,0,0.1805,0.1811,0.1871,0.1875,0.1879,0.1936,0.1924,0.1972,0.1958,0.1925,0.1959,0.1959,0.2006,0.2011,0.202,0.2059,0.2063,0.2051,0.2053,0.2054,0.2055,0,0,0,0,0,0,0,0.1801,0.1808,0.1874,0.1873,0.1878,0.1899,0.1906,0.1933,0.196,0.1928,0.1931,0.1946,0.2008,0.2017,0.2022,0.2064,0.2051,0.2054,0.2055,0.2056,0.22,0.2202,0,0,0,0,0,0,0.1797,0.1804,0.1872,0.1877,0.1846,0.1901,0.1908,0.1914,0.196,0.1968,0.1946,0.1947,0.2012,0.2019,0.2025,0.2109,0.2054,0.2057,0.2058,0.2198,0.2201,0.2203,0,0,0,0,0,0,0.1795,0.1802,0.1869,0.1846,0.1856,0.1902,0.1909,0.1916,0.1965,0.1975,0.1982,0.1993,0.2013,0.2021,0.2081,0.211,0.2058,0.2061,0.2196,0.2199,0.2202,0.2236,0,0,0,0,0,0,0.1792,0.1801,0.1821,0.1845,0.1858,0.1918,0.191,0.1918,0.1974,0.1977,0.2017,0.2022,0.2013,0.2077,0.2084,0.2113,0.2063,0.2193,0.2197,0.2201,0.2232,0.2239,0.2246,0,0,0,0,0,0.1788,0.1806,0.1821,0.1831,0.1878,0.192,0.1929,0.1959,0.1976,0.2003,0.2032,0.2023,0.2106,0.2081,0.2089,0.2119,0.2191,0.2196,0.2201,0.2229,0.2238,0.2246,0,0,0,0,0,0,0.1764,0.1812,0.1829,0.1858,0.19,0.1927,0.1959,0.1986,0.2031,0.204,0.2051,0.2059,0.2123,0.2125,0.2097,0.2175,0.2147,0.2154,0.2166,0.2175,0.2182,0.2182,0.2065,0,0,0,0,0,0.1772,0.1811,0.1848,0.1879,0.19,0.1941,0.1971,0.1991,0.2027,0.2049,0.2084,0.2115,0.2142,0.2163,0.219,0.2235,0.2254,0.2261,0.2268,0.2274,0.2282,0.234,0.2353,0.2218,0.2218,0.2218,0,0,0.1772,0.1807,0.1828,0.188,0.1913,0.1947,0.1959,0.2009,0.2044,0.205,0.2123,0.215,0.2164,0.221,0.2238,0.2217,0.2325,0.228,0.2284,0.229,0.2347,0.2359,0.2371,0.2221,0.2221,0.222,0,0,0.1783,0.1822,0.1855,0.1894,0.1955,0.1977,0.2004,0.2059,0.2091,0.2158,0.2169,0.2216,0.2274,0.2278,0.2286,0.2354,0.2366,0.2374,0.2402,0.2459,0.247,0.248,0.2524,0.2538,0.2369,0.2369,0.2369,0,0.1784,0.1823,0.1871,0.1909,0.1945,0.1997,0.203,0.2069,0.2142,0.2181,0.2189,0.2293,0.2299,0.2346,0.2359,0.2368,0.2407,0.2362,0.2467,0.2477,0.2486,0.2529,0.2544,0.2372,0.2371,0.2371,0.2371,0,0.1806,0.1852,0.1875,0.1941,0.1985,0.2027,0.2079,0.2144,0.2198,0.2237,0.2328,0.2349,0.2412,0.2415,0.2402,0.2476,0.2485,0.2472,0.2439,0.2502,0.2543,0.2558,0.2375,0.2374,0.2373,0.2373,0,0,0.1786,0.1871,0.1892,0.1924,0.2006,0.2042,0.2114,0.219,0.2257,0.2327,0.2408,0.2446,0.2486,0.2499,0.2504,0.2534,0.2619,0.2535,0.2537,0.2568,0.2756,0.2588,0.2588,0.2637,0.264,0.2642,0.2758,0,0.1796,0.186,0.1908,0.198,0.2012,0.2087,0.2154,0.2234,0.231,0.2405,0.2443,0.2522,0.2509,0.2552,0.2585,0.2618,0.2661,0.2589,0.27,0.2703,0.2537,0.2599,0.265,0.2769,0.2772,0.2775,0.2777,0,0.1806,0.1855,0.1914,0.2007,0.2032,0.2089,0.222,0.2286,0.2412,0.2477,0.2568,0.2613,0.2683,0.2657,0.2762,0.2728,0.2755,0.2765,0.277,0.2609,0.2561,0.2695,0.2803,0.2801,0.2799,0.2797,0.2795,0,0.1768,0.1863,0.1911,0.1942,0.2051,0.2114,0.219,0.2322,0.2395,0.2541,0.2613,0.2711,0.2781,0.2832,0.2869,0.2838,0.2973,0.2928,0.2805,0.2794,0.2895,0.2883,0.3009,0.3009,0.3009,0.3009,0.3008,0,0.1742,0.1794,0.1908,0.1936,0.2025,0.2113,0.2226,0.2324,0.2465,0.2548,0.2658,0.2731,0.2835,0.2914,0.2924,0.2915,0.3034,0.2823,0.2815,0.2907,0.2896,0.2905,0.2892,0.3013,0.3012,0.3011,0.301,0,0.1681,0.1751,0.1819,0.1952,0.2003,0.2074,0.2238,0.2314,0.2467,0.2582,0.2633,0.279,0.2888,0.2967,0.3058,0.2975,0.2982,0.2954,0.307,0.3066,0.275,0.2738,0.2808,0.2804,0.2799,0.2796,0.2793,0,0.1639,0.1672,0.1822,0.1874,0.1939,0.2061,0.2141,0.2305,0.2379,0.2588,0.2621,0.2783,0.2863,0.2861,0.2959,0.2985,0.2947,0.2933,0.2803,0.2745,0.2732,0.2726,0.2719,0.2786,0.2785,0.2784,0.2783,0,0.1571,0.1647,0.1709,0.182,0.191,0.1991,0.2116,0.2151,0.2329,0.2484,0.2543,0.2587,0.2698,0.2753,0.2813,0.2817,0.292,0.2888,0.2895,0.2773,0.2719,0.2709,0.2707,0.2768,0.2771,0.2772,0.2773,0,0.1536,0.1563,0.1665,0.1745,0.1851,0.1888,0.1962,0.2038,0.2125,0.2334,0.2355,0.2516,0.2671,0.2671,0.272,0.272,0.2657,0.2543,0.2566,0.2584,0.2453,0.2349,0.2287,0,0,0,0,0,0.1489,0.1508,0.1579,0.165,0.1746,0.1802,0.1931,0.2004,0.2164,0.2143,0.2238,0.2319,0.238,0.2474,0.2427,0.2632,0.268,0.2565,0.2562,0.2688,0.2705,0.2571,0,0,0,0,0,0,0.1457,0.152,0.1541,0.1557,0.1582,0.1664,0.1732,0.1836,0.1831,0.2,0.2049,0.2177,0.2282,0.2385,0.2382,0.2411,0.2359,0.2674,0.2668,0.2678,0.2694,0.2707,0.2575,0,0,0,0,0]},{"header":{"parameterUnit":"m.s-1","parameterCategory":2,"la1":30.2991,"la2":30.254,"lo1":-89.0895,"lo2":-89.0444,"dy":0.0017,"dx":0.0017,"nx":28,"ny":28,"refTime":"2024-05-01T03:00:00:Z","depth":"4","parameterNumber":3,"parameterNumberName":"V-component_of_CURRENTS"},"data":[0,0,0,0,0,0,0,0,0,0,0,0,0,0,0,0,0,0,0,0,0,0,0,0,0,0,0,0,0,0,0,0,0,0,0,0,0,0,0,0,0,0,0,0,0,0,0,0,0,0,0,0,0,0,0,0,0,0,0.022,0.022,0,0.0202,0.0202,0.0202,0.0193,0.0193,0.0192,0.0192,0.0141,0.014,0.0139,0,0,0,0,0,0,0,0,0,0,0,0,0,0.0234,0.0234,0.022,0.0219,0.0219,0.0202,0.0202,0.0202,0.0193,0.0193,0.0192,0.0192,0.0142,0.014,0.0139,0,0,0,0,0,0,0,0,0,0,0,0,0,0.0225,0.0234,0.022,0.0211,0.021,0.0202,0.0202,0.0202,0.0193,0.0193,0.0192,0.0192,0.0142,0.0141,0.0139,0.0134,0,0,0.0133,0.0133,0,0,0,0,0,0,0,0,0.0226,0.0225,0.0213,0.0211,0.021,0.0197,0.0188,0.0177,0.0193,0.0202,0.0192,0.0192,0.0156,0.0153,0.0154,0.0132,0.013,0.0133,0.0132,0.0132,0.0131,0,0,0,0,0,0,0,0.0226,0.0226,0.0215,0.0212,0.0211,0.0203,0.0202,0.0186,0.0182,0.0201,0.02,0.0194,0.0155,0.0156,0.0152,0.0129,0.0133,0.0132,0.0131,0.013,0.0103,0.0103,0,0,0,0,0,0,0.0225,0.0226,0.0216,0.0214,0.0215,0.0203,0.0202,0.0204,0.0183,0.0179,0.0195,0.0194,0.0159,0.0155,0.0151,0.0161,0.0132,0.013,0.0129,0.0103,0.0103,0.0103,0,0,0,0,0,0,0.0226,0.0225,0.0216,0.0218,0.0216,0.0203,0.0205,0.0203,0.0207,0.0178,0.0174,0.02,0.0158,0.0153,0.0141,0.0158,0.0129,0.0128,0.0102,0.0103,0.0103,0.0171,0,0,0,0,0,0,0.0226,0.0225,0.0229,0.0218,0.0216,0.022,0.0205,0.0203,0.0203,0.0202,0.0181,0.0176,0.0158,0.0143,0.0139,0.0155,0.0126,0.0102,0.0103,0.0103,0.0168,0.0174,0.0178,0,0,0,0,0,0.0227,0.0241,0.0229,0.0228,0.022,0.022,0.0219,0.021,0.0203,0.0211,0.0193,0.0177,0.0144,0.0142,0.0137,0.0153,0.0102,0.0102,0.0103,0.0166,0.0173,0.0178,0,0,0,0,0,0,0.0257,0.024,0.0228,0.0237,0.0229,0.0218,0.0225,0.0215,0.0208,0.021,0.018,0.0174,0.0168,0.0149,0.0148,0.0146,0.012,0.012,0.017,0.0176,0.0181,0.0196,0.0125,0,0,0,0,0,0.0262,0.0265,0.0246,0.0256,0.0252,0.0238,0.0237,0.0233,0.0222,0.022,0.0202,0.0183,0.0167,0.0162,0.0144,0.0145,0.0113,0.0151,0.0156,0.016,0.0168,0.0129,0.0131,0.0106,0.0106,0.0106,0,0,0.0277,0.0267,0.027,0.0261,0.0255,0.0264,0.0238,0.0246,0.0256,0.0214,0.0224,0.0198,0.0169,0.017,0.0166,0.0157,0.015,0.0161,0.0165,0.017,0.013,0.0132,0.0134,0.0106,0.0106,0.0106,0,0,0.031,0.03,0.0311,0.0305,0.0296,0.0291,0.0294,0.0285,0.0283,0.0285,0.0255,0.0241,0.0221,0.0206,0.0194,0.0214,0.0174,0.0208,0.0252,0.0215,0.0217,0.0218,0.0181,0.0178,0.0216,0.0216,0.0216,0,0.0326,0.0338,0.0316,0.0323,0.0327,0.0306,0.0325,0.0321,0.0311,0.0313,0.0297,0.0267,0.0241,0.0238,0.0246,0.0228,0.0197,0.0235,0.0222,0.0223,0.0223,0.0184,0.0181,0.022,0.0219,0.0219,0.0219,0,0.0359,0.0372,0.0381,0.0382,0.0386,0.0402,0.0389,0.0395,0.0389,0.0382,0.0376,0.0337,0.0321,0.0309,0.0286,0.0278,0.0252,0.0229,0.021,0.023,0.0188,0.0183,0.0225,0.0223,0.0222,0.0221,0,0,0.0382,0.0402,0.0404,0.0421,0.042,0.0433,0.0448,0.0458,0.0475,0.0455,0.0467,0.0435,0.0412,0.0396,0.0359,0.0328,0.03,0.0287,0.0283,0.0256,0.0215,0.0191,0.0183,0.0273,0.0272,0.0272,0.0185,0,0.0413,0.0454,0.045,0.0497,0.0518,0.0508,0.0527,0.0533,0.053,0.0535,0.0494,0.049,0.0445,0.0439,0.0402,0.0324,0.029,0.0326,0.0195,0.0191,0.0172,0.0177,0.0271,0.0181,0.018,0.0179,0.0178,0,0.0436,0.0464,0.0517,0.0562,0.057,0.0598,0.0629,0.0643,0.0638,0.0633,0.0617,0.0578,0.0537,0.0491,0.0377,0.0401,0.0318,0.0252,0.0247,0.0199,0.0158,0.0155,0.0168,0.0169,0.017,0.0171,0.0171,0,0.0462,0.0509,0.0562,0.0573,0.0616,0.0644,0.067,0.068,0.0703,0.0695,0.0704,0.0645,0.0617,0.0511,0.0378,0.0376,0.024,0.0218,0.0117,0.0114,0.0132,0.0131,0.0133,0.0134,0.0134,0.0134,0.0134,0,0.049,0.0531,0.0586,0.0613,0.0684,0.0693,0.0758,0.0768,0.0788,0.082,0.0761,0.0756,0.0618,0.0523,0.0397,0.0243,0.0252,0.0126,0.0091,0.0162,0.0165,0.0128,0.0128,0.0131,0.0131,0.0132,0.0133,0,0.0508,0.0541,0.0605,0.067,0.07,0.075,0.0826,0.0863,0.0873,0.0909,0.0909,0.0839,0.0715,0.0563,0.0383,0.0273,0.0124,0.0063,0.0153,0.0124,0.0019,0.0024,-0.0049,-0.005,-0.0052,-0.0053,-0.0054,0,0.0523,0.0558,0.0648,0.0698,0.0736,0.0813,0.0865,0.0906,0.0943,0.0955,0.0968,0.0873,0.0801,0.054,0.0371,0.0129,0.0088,0.0006,0.0011,0.0027,0.0001,0.0008,0.0014,-0.0056,-0.0056,-0.0056,-0.0057,0,0.0546,0.0578,0.0631,0.0731,0.0805,0.0883,0.096,0.0997,0.1033,0.1046,0.1013,0.0886,0.0743,0.0541,0.0349,0.0174,0.0059,-0.0009,-0.0007,-0.0002,0.0018,-0.0006,0.0002,-0.0061,-0.006,-0.006,-0.006,0,0.056,0.0598,0.0667,0.0755,0.0845,0.0923,0.097,0.1013,0.105,0.1063,0.1049,0.0903,0.0825,0.0563,0.0388,0.0213,0.0165,0.01,0.0095,0.0098,0.0161,0.021,0.0163,0,0,0,0,0,0.0567,0.0609,0.0687,0.0779,0.0866,0.092,0.1014,0.1049,0.109,0.1074,0.1066,0.0934,0.0684,0.0579,0.04,0.0347,0.0123,0.0129,0.0043,-0.0086,-0.0081,-0.0034,0,0,0,0,0,0,0.0571,0.0639,0.0675,0.0774,0.0839,0.0934,0.0996,0.1033,0.1024,0.1043,0.0917,0.0869,0.0629,0.0783,0.039,0.0338,0.0254,0.002,0.0015,-0.0089,-0.0084,-0.008,-0.0031,0,0,0,0,0]}]]